Weather History for KVPZ - November, 2013

Change the Weather History Date:

Monday, November 11, 2013

  Actual Average Record
Temperature  
Mean Temperature 37 °F 43 °F  
Max Temperature 46 °F 51 °F 71 °F (2010)
Min Temperature 28 °F 35 °F 22 °F (2008)
Degree Days  
Heating Degree Days 28 22  
Month to date heating degree days 239 219  
Since 1 July heating degree days 778 749  
Cooling Degree Days 0 0  
Month to date cooling degree days 0 0  
Year to date cooling degree days 810 713  
Moisture  
Dew Point 32 °F    
Average Humidity 88    
Maximum Humidity 100    
Minimum Humidity 65    
Precipitation  
Precipitation 0.17 in 0.11 in 0.17 in (2013)
Month to date precipitation 1.07 1.36  
Year to date precipitation 33.54 33.36  
Sea Level Pressure  
Sea Level Pressure 30.22 in    
Wind  
Wind Speed 10 mph (NNW)    
Max Wind Speed 17 mph    
Max Gust Speed 28 mph    
Visibility 6 miles    
Events Rain , Snow    
T = Trace of Precipitation, MM = Missing Value Source: NWS Daily Summary

Daily Weather History Graph

Daily Weather History Graph

Search for Another Location

Airport or City:

Trip Planner

Search our weather history database for the weather conditions in past years. The results will help you decide how hot, cold, wet, or windy it might be!

Date:

Astronomy

Nov. 11, 2013 Rise Set
Actual Time 6:32 AM CST 4:31 PM CST
Civil Twilight 6:02 AM CST 5:01 PM CST
Nautical Twilight 5:29 AM CST 5:34 PM CST
Astronomical Twilight 4:56 AM CST 6:06 PM CST
Moon 1:15 PM CST (11/11) 12:12 AM CST (11/11)
Length of Visible Light 10h 58m
Length of Day
9h 59m
Waxing Gibbous, 66% of the Moon is Illuminated
Nov 11
Waxing Gibbous
Nov 17
Full
Nov 25
Last Quarter
Dec 2
New
Dec 9
First Quarter

Hourly Weather History & Observations

Time (CST) Temp. Windchill Dew Point Humidity Pressure Visibility Wind Dir Wind Speed Gust Speed Precip Events Conditions
12:53 AM 39.0 °F 33.4 °F 32.0 °F 76% 30.23 in 10.0 mi SSW 8.1 mph - N/A   Overcast
1:53 AM 39.0 °F 33.4 °F 32.0 °F 76% 30.22 in 10.0 mi SW 8.1 mph - N/A   Overcast
2:53 AM 39.9 °F 33.4 °F 32.0 °F 73% 30.20 in 10.0 mi SW 10.4 mph - N/A   Overcast
3:53 AM 41.0 °F 33.9 °F 30.9 °F 67% 30.17 in 10.0 mi SW 12.7 mph - N/A   Overcast
4:53 AM 41.0 °F 34.3 °F 32.0 °F 70% 30.16 in 10.0 mi SSW 11.5 mph - N/A   Overcast
5:53 AM 41.0 °F 35.2 °F 32.0 °F 70% 30.15 in 10.0 mi SW 9.2 mph - N/A   Overcast
6:53 AM 42.1 °F 35.7 °F 30.9 °F 65% 30.14 in 10.0 mi SW 11.5 mph - N/A   Overcast
7:53 AM 43.0 °F 37.7 °F 32.0 °F 65% 30.14 in 10.0 mi WSW 9.2 mph - N/A   Overcast
8:53 AM 44.1 °F 38.1 °F 33.1 °F 65% 30.14 in 10.0 mi WSW 11.5 mph - N/A   Overcast
9:53 AM 45.0 °F 39.7 °F 34.0 °F 65% 30.14 in 10.0 mi West 10.4 mph - N/A   Overcast
10:53 AM 45.0 °F 40.6 °F 34.0 °F 65% 30.13 in 10.0 mi West 8.1 mph - N/A   Overcast
11:53 AM 42.1 °F 37.1 °F 37.9 °F 85% 30.13 in 4.0 mi NW 8.1 mph - 0.00 in Rain Light Rain
12:14 PM 41.0 °F 35.8 °F 39.2 °F 93% 30.10 in 3.0 mi NNW 8.1 mph - 0.02 in Rain Light Rain
12:24 PM 41.0 °F 34.7 °F 39.2 °F 93% 30.11 in 4.0 mi NNW 10.4 mph - 0.02 in Rain Light Rain
12:37 PM 41.0 °F 36.4 °F 39.2 °F 93% 30.11 in 3.0 mi NNW 6.9 mph - 0.02 in Rain Light Rain
12:53 PM 39.9 °F - 37.9 °F 93% 30.14 in 4.0 mi North - - 0.03 in Rain Light Rain
1:40 PM 37.4 °F 31.4 °F 37.4 °F 100% 30.13 in 6.0 mi North 8.1 mph 19.6 mph 0.02 in Rain Light Rain
1:48 PM 37.4 °F 30.3 °F 37.4 °F 100% 30.14 in 6.0 mi North 10.4 mph - 0.02 in Rain Light Rain
1:53 PM 37.9 °F 31.5 °F 37.0 °F 97% 30.16 in 7.0 mi North 9.2 mph - 0.02 in Rain Light Rain
2:09 PM 37.4 °F 30.3 °F 35.6 °F 93% 30.15 in 6.0 mi NNW 10.4 mph - 0.01 in Rain Light Rain
2:43 PM 35.6 °F 27.5 °F 35.6 °F 100% 30.16 in 6.0 mi North 11.5 mph - 0.03 in Rain Light Rain
2:53 PM 35.1 °F 26.4 °F 34.0 °F 96% 30.19 in 5.0 mi North 12.7 mph 20.7 mph 0.04 in Rain Light Rain
3:01 PM 35.6 °F 28.0 °F 33.8 °F 93% 30.17 in 6.0 mi North 10.4 mph 18.4 mph 0.01 in Rain Light Rain
3:11 PM 35.6 °F 27.1 °F 33.8 °F 93% 30.18 in 6.0 mi North 12.7 mph 21.9 mph 0.01 in Rain Light Rain
3:53 PM 33.1 °F 24.4 °F 32.0 °F 96% 30.22 in 3.0 mi North 11.5 mph 19.6 mph 0.04 in Snow Light Snow
3:58 PM 33.8 °F 25.8 °F 32.0 °F 93% 30.20 in 2.0 mi North 10.4 mph 19.6 mph 0.00 in Snow Light Snow
4:06 PM 32.0 °F 24.2 °F 32.0 °F 100% 30.21 in 1.5 mi North 9.2 mph - 0.01 in Snow Light Snow
4:20 PM 32.0 °F 22.5 °F 32.0 °F 100% 30.21 in 1.5 mi North 12.7 mph 21.9 mph 0.01 in Snow Light Snow
4:38 PM 32.0 °F 23.0 °F 30.2 °F 93% 30.22 in 1.8 mi North 11.5 mph 24.2 mph 0.01 in Snow Light Snow
4:48 PM 32.0 °F 23.6 °F 30.2 °F 93% 30.23 in 1.2 mi North 10.4 mph 18.4 mph 0.02 in Snow Light Snow
4:53 PM 32.0 °F 23.6 °F 30.9 °F 96% 30.25 in 1.2 mi North 10.4 mph 18.4 mph 0.02 in Snow Light Snow
5:22 PM 30.2 °F 19.3 °F 30.2 °F 100% 30.24 in 1.5 mi North 15.0 mph 20.7 mph 0.01 in Snow Light Snow
5:29 PM 30.2 °F 21.3 °F 30.2 °F 100% 30.25 in 2.0 mi North 10.4 mph 20.7 mph 0.01 in Snow Light Snow
5:40 PM 30.2 °F 18.9 °F 30.2 °F 100% 30.26 in 3.0 mi North 16.1 mph 21.9 mph 0.01 in Snow Light Snow
5:46 PM 30.2 °F 20.2 °F 30.2 °F 100% 30.26 in 1.8 mi North 12.7 mph 19.6 mph 0.01 in Snow Light Snow
5:53 PM 30.9 °F 21.7 °F 30.0 °F 96% 30.29 in 1.0 mi North 11.5 mph 20.7 mph 0.02 in Snow Light Snow
6:11 PM 30.2 °F 18.5 °F 30.2 °F 100% 30.27 in 1.5 mi North 17.3 mph 27.6 mph 0.00 in Snow Light Snow
6:18 PM 30.2 °F 20.2 °F 30.2 °F 100% 30.28 in 1.8 mi North 12.7 mph 27.6 mph 0.00 in Snow Light Snow
6:40 PM 30.2 °F 20.8 °F 28.4 °F 93% 30.29 in 2.0 mi North 11.5 mph 23.0 mph 0.00 in Snow Light Snow
6:53 PM 30.0 °F 22.4 °F 28.9 °F 96% 30.32 in 2.5 mi North 8.1 mph 17.3 mph 0.00 in Snow Light Snow
7:00 PM 30.2 °F 24.3 °F 28.4 °F 93% 30.30 in 6.0 mi North 5.8 mph - 0.00 in Snow Light Snow
7:08 PM 30.2 °F 21.3 °F 28.4 °F 93% 30.30 in 10.0 mi North 10.4 mph - 0.00 in   Overcast
7:53 PM 30.9 °F 21.2 °F 24.1 °F 76% 30.34 in 10.0 mi North 12.7 mph 17.3 mph 0.00 in   Mostly Cloudy
8:53 PM 30.9 °F 23.5 °F 24.1 °F 76% 30.37 in 10.0 mi North 8.1 mph - N/A   Overcast
9:53 PM 30.9 °F 22.8 °F 21.9 °F 69% 30.39 in 10.0 mi North 9.2 mph 18.4 mph N/A   Overcast
10:53 PM 28.9 °F 22.8 °F 25.0 °F 85% 30.43 in 9.0 mi East 5.8 mph - 0.00 in Snow Light Snow
11:53 PM 28.0 °F 21.7 °F 25.0 °F 88% 30.45 in 10.0 mi East 5.8 mph - N/A   Overcast